FW9975 Weather Reports


time (UTC)temp
F
wind
direction
speed
knots
gust
knots
rain 1hr
in
rain 24hr
in
rain mn
in
humidity
%
barometer
mb
20260509024236 63 287 0.9 1.7 0.00 0.00 0.00 61 1007.1
20260509023734 62 277 0.0 0.9 0.00 0.00 0.00 64 1006.7
20260509023231 62 277 0.0 0.0 0.00 0.00 0.00 62 1006.9
20260509022727 63 275 0.0 0.9 0.00 0.00 0.00 62 1006.7
20260509022225 63 277 0.0 0.9 0.00 0.00 0.00 61 1006.7
20260509021721 63 277 0.9 0.9 0.00 0.00 0.00 57 1006.9
20260509021219 63 279 0.0 0.0 0.00 0.00 0.00 59 1006.8
20260509020717 64 279 0.0 0.0 0.00 0.00 0.00 58 1006.7
20260509020214 64 279 0.0 0.0 0.00 0.00 0.00 56 1006.9
20260509015712 64 279 0.0 0.0 0.00 0.00 0.00 55 1006.6
20260509015210 64 290 0.0 0.9 0.00 0.00 0.00 57 1006.7
20260509014706 64 288 0.0 0.9 0.00 0.00 0.00 56 1006.7
20260509014203 65 288 0.0 0.9 0.00 0.00 0.00 54 1006.9
20260509013659 65 290 0.0 0.9 0.00 0.00 0.00 54 1006.7
20260509013155 65 258 1.7 2.6 0.00 0.00 0.00 52 1006.8
20260509012652 65 284 0.0 0.9 0.00 0.00 0.00 54 1007.0
20260509012149 65 279 0.0 0.0 0.00 0.00 0.00 52 1006.8
20260509011647 66 275 0.0 0.9 0.00 0.00 0.00 52 1006.9
20260509011144 66 265 1.7 2.6 0.00 0.00 0.00 50 1006.6
20260509010641 66 272 0.0 0.0 0.00 0.00 0.00 49 1006.6
20260509010137 67 271 0.0 0.9 0.00 0.00 0.00 48 1006.8
20260509005635 67 271 0.0 0.9 0.00 0.00 0.00 46 1006.7
20260509005131 67 279 1.7 1.7 0.00 0.00 0.00 45 1006.5
20260509004627 67 269 1.7 5.2 0.00 0.00 0.00 45 1006.5
20260509004125 67 264 0.9 0.9 0.00 0.00 0.00 45 1006.2
20260509003623 67 265 1.7 1.7 0.00 0.00 0.00 44 1005.9
20260509003120 67 267 0.9 1.7 0.00 0.00 0.00 45 1006.0
20260509002617 67 268 0.9 1.7 0.00 0.00 0.00 45 1006.1
20260509002114 67 278 0.9 1.7 0.00 0.00 0.00 45 1006.2
20260509001612 68 217 2.6 2.6 0.00 0.00 0.00 44 1006.4
20260509001107 68 255 0.9 4.3 0.00 0.00 0.00 45 1006.3
20260509000606 68 272 0.9 4.3 0.00 0.00 0.00 44 1006.1
20260508235600 67 263 0.9 2.6 0.00 0.00 0.00 44 1006.2
20260508235056 67 272 0.0 1.7 0.00 0.00 0.00 46 1006.1
20260508234553 68 203 2.6 2.6 0.00 0.00 0.00 45 1006.2
20260508234050 68 247 1.7 2.6 0.00 0.00 0.00 45 1006.2
20260508233549 68 252 1.7 1.7 0.00 0.00 0.00 45 1006.2
20260508233046 68 269 0.9 4.3 0.00 0.00 0.00 45 1006.3
20260508232543 68 274 0.9 2.6 0.00 0.00 0.00 44 1006.3
20260508232040 68 217 2.6 2.6 0.00 0.00 0.00 45 1006.5
20260508231538 68 270 0.9 1.7 0.00 0.00 0.00 43 1006.2
20260508231035 68 263 0.9 2.6 0.00 0.00 0.00 44 1006.2
20260508230531 68 262 1.7 2.6 0.00 0.00 0.00 43 1006.1
20260508230028 68 220 1.7 4.3 0.00 0.00 0.00 45 1006.0
20260508225525 68 252 1.7 4.3 0.00 0.00 0.00 44 1006.1
20260508225022 68 200 4.3 5.2 0.00 0.00 0.00 45 1006.0
20260508224520 69 281 1.7 4.3 0.00 0.00 0.00 43 1006.3
20260508224017 69 217 2.6 2.6 0.00 0.00 0.00 43 1006.1
20260508223515 69 262 1.7 4.3 0.00 0.00 0.00 42 1006.1
20260508223012 69 241 1.7 2.6 0.00 0.00 0.00 42 1006.0
20260508222509 69 205 3.5 7.0 0.00 0.00 0.00 43 1006.1
20260508222005 69 200 4.3 7.8 0.00 0.00 0.00 43 1006.1
20260508221502 69 265 1.7 2.6 0.00 0.00 0.00 42 1006.0
20260508220958 69 231 1.7 2.6 0.00 0.00 0.00 44 1005.9
20260508220454 69 188 1.7 4.3 0.00 0.00 0.00 43 1005.8
20260508215950 69 277 0.9 4.3 0.00 0.00 0.00 43 1005.9
20260508215448 70 256 1.7 4.3 0.00 0.00 0.00 41 1005.9
20260508214944 69 264 4.3 6.1 0.00 0.00 0.00 41 1005.9
20260508214442 69 226 4.3 7.0 0.00 0.00 0.00 43 1006.0
20260508213938 69 212 1.7 5.2 0.00 0.00 0.00 41 1006.0
20260508213436 69 227 2.6 5.2 0.00 0.00 0.00 40 1006.0
20260508212931 70 209 2.6 4.3 0.00 0.00 0.00 41 1006.1
20260508212428 69 256 0.9 1.7 0.00 0.00 0.00 41 1006.2
20260508211924 69 240 2.6 2.6 0.00 0.00 0.00 43 1006.1
20260508211420 69 251 1.7 2.6 0.00 0.00 0.00 41 1006.3
20260508210917 69 215 1.7 6.1 0.00 0.00 0.00 42 1006.2
20260508210414 70 268 1.7 7.0 0.00 0.00 0.00 40 1006.4
20260508205910 70 287 1.7 4.3 0.00 0.00 0.00 40 1006.8
20260508205407 70 204 3.5 4.3 0.00 0.00 0.00 39 1006.7
20260508204903 70 256 4.3 6.1 0.00 0.00 0.00 37 1006.9
20260508204400 70 282 3.5 7.0 0.00 0.00 0.00 37 1007.0
20260508203856 70 281 4.3 7.0 0.00 0.00 0.00 37 1007.1
20260508203352 71 266 1.7 2.6 0.00 0.00 0.00 39 1006.9
20260508202848 70 283 0.9 7.8 0.00 0.00 0.00 38 1007.0
20260508202346 70 283 0.9 5.2 0.00 0.00 0.00 37 1007.2
20260508201843 70 262 5.2 5.2 0.00 0.00 0.00 37 1007.1
20260508201340 70 289 1.7 2.6 0.00 0.00 0.00 38 1007.3
20260508200836 69 261 0.9 4.3 0.00 0.00 0.00 39 1007.2
20260508200333 70 272 0.9 6.1 0.00 0.00 0.00 38 1007.2
20260508195828 69 190 1.7 4.3 0.00 0.00 0.00 39 1007.2
20260508195326 69 247 1.7 4.3 0.00 0.00 0.00 40 1007.2
20260508194822 70 207 1.7 4.3 0.00 0.00 0.00 38 1007.4
20260508194319 70 231 3.5 6.1 0.00 0.00 0.00 36 1007.5
20260508193810 70 260 3.5 7.0 0.00 0.00 0.00 37 1007.4
20260508193307 70 246 3.5 5.2 0.00 0.00 0.00 39 1007.3
20260508192803 70 255 2.6 6.1 0.00 0.00 0.00 36 1007.5
20260508192300 71 222 2.6 7.0 0.00 0.00 0.00 38 1007.6
20260508191757 72 248 1.7 7.0 0.00 0.00 0.00 36 1007.6
20260508191254 72 243 2.6 7.0 0.00 0.00 0.00 34 1007.8
20260508190752 72 289 5.2 8.7 0.00 0.00 0.00 36 1007.9
20260508190248 71 262 1.7 2.6 0.00 0.00 0.00 39 1007.6
20260508185744 71 328 2.6 7.8 0.00 0.00 0.00 37 1008.1
20260508185242 70 248 2.6 6.1 0.00 0.00 0.00 39 1007.7
20260508184739 71 197 3.5 7.8 0.00 0.00 0.00 40 1008.2
20260508184236 70 267 3.5 7.0 0.00 0.00 0.00 37 1008.4
20260508183733 71 288 0.9 6.1 0.00 0.00 0.00 38 1008.4
20260508183229 71 266 5.2 7.8 0.00 0.00 0.00 35 1008.6
20260508182724 71 281 1.7 2.6 0.00 0.00 0.00 38 1008.6
20260508182222 70 264 1.7 5.2 0.00 0.00 0.00 35 1008.9
20260508181718 69 289 1.7 7.0 0.00 0.00 0.00 36 1008.9
20260508181215 70 250 3.5 8.7 0.00 0.00 0.00 35 1009.1
20260508180712 71 283 4.3 7.8 0.00 0.00 0.00 36 1009.0
20260508180208 70 244 4.3 7.0 0.00 0.00 0.00 38 1009.0
20260508175705 70 224 2.6 5.2 0.00 0.00 0.00 37 1009.2
20260508175202 69 227 4.3 7.0 0.00 0.00 0.00 41 1009.1
20260508174700 69 202 2.6 7.0 0.00 0.00 0.00 40 1009.2
20260508174156 70 188 4.3 7.0 0.00 0.00 0.00 41 1009.4
20260508173653 69 320 2.6 6.1 0.00 0.00 0.00 38 1009.3
20260508173149 70 211 5.2 7.0 0.00 0.00 0.00 41 1009.6
20260508172646 71 258 1.7 7.0 0.00 0.00 0.00 40 1009.9
20260508172143 70 287 0.0 2.6 0.00 0.00 0.00 40 1009.5
20260508171639 69 267 2.6 7.8 0.00 0.00 0.00 39 1009.9
20260508171136 69 274 6.1 7.8 0.00 0.00 0.00 39 1010.0
20260508170633 69 198 4.3 7.8 0.00 0.00 0.00 46 1010.2
20260508170130 70 186 5.2 7.0 0.00 0.00 0.00 44 1010.1
20260508165627 69 279 1.7 5.2 0.00 0.00 0.00 41 1010.4
20260508165124 69 253 2.6 4.3 0.00 0.00 0.00 42 1010.4
20260508164620 69 249 0.9 4.3 0.00 0.00 0.00 41 1010.5
20260508164118 68 248 1.7 6.1 0.00 0.00 0.00 41 1010.8
20260508163615 68 233 2.6 5.2 0.00 0.00 0.00 42 1010.8
20260508163112 68 239 2.6 4.3 0.00 0.00 0.00 44 1010.6
20260508162608 68 258 4.3 5.2 0.00 0.00 0.00 41 1010.9
20260508162106 68 243 2.6 5.2 0.00 0.00 0.00 46 1010.9
20260508161602 68 261 6.1 7.8 0.00 0.00 0.00 42 1011.0
20260508161100 68 242 6.1 9.6 0.00 0.00 0.00 41 1010.9
20260508160558 67 255 1.7 4.3 0.00 0.00 0.00 47 1010.8
20260508160055 67 256 1.7 6.1 0.00 0.00 0.00 44 1011.2
20260508155552 67 254 2.6 6.1 0.00 0.00 0.00 43 1011.3
20260508155049 67 338 2.6 7.0 0.00 0.00 0.00 43 1011.2
20260508154546 67 296 2.6 6.1 0.00 0.00 0.00 44 1011.2
20260508154043 67 267 1.7 7.8 0.00 0.00 0.00 43 1011.4
20260508153539 66 245 2.6 4.3 0.00 0.00 0.00 44 1011.4
20260508153036 66 304 3.5 7.8 0.00 0.00 0.00 44 1011.5
20260508152533 65 250 2.6 11.3 0.00 0.00 0.00 44 1011.7
20260508152028 66 217 2.6 4.3 0.00 0.00 0.00 48 1011.6
20260508151525 65 228 2.6 6.1 0.00 0.00 0.00 48 1011.6
20260508151022 65 204 2.6 5.2 0.00 0.00 0.00 47 1011.7
20260508150520 65 262 5.2 7.0 0.00 0.00 0.00 45 1011.8
20260508150015 64 272 0.0 2.6 0.00 0.00 0.00 47 1011.6
20260508145512 64 237 1.7 2.6 0.00 0.00 0.00 47 1011.8
20260508145008 64 262 3.5 4.3 0.00 0.00 0.00 47 1011.8
20260508144506 63 192 3.5 5.2 0.00 0.00 0.00 49 1011.8
20260508144003 63 247 2.6 6.1 0.00 0.00 0.00 47 1011.8
20260508143501 63 201 3.5 5.2 0.00 0.00 0.00 48 1012.0
20260508142957 63 257 1.7 2.6 0.00 0.00 0.00 50 1011.9
20260508142454 63 298 2.6 4.3 0.00 0.00 0.00 45 1012.1
20260508141950 62 208 0.9 4.3 0.00 0.00 0.00 49 1012.3
20260508141447 62 262 0.9 4.3 0.00 0.00 0.00 47 1012.3
20260508140945 62 260 5.2 8.7 0.00 0.00 0.00 46 1012.4
20260508140442 62 246 2.6 5.2 0.00 0.00 0.00 48 1012.3
20260508135937 62 303 2.6 7.0 0.00 0.00 0.00 46 1012.3
20260508135434 61 262 1.7 5.2 0.00 0.00 0.00 50 1012.4
20260508134931 61 248 2.6 2.6 0.00 0.00 0.00 52 1012.7
20260508134427 60 262 0.9 2.6 0.00 0.00 0.00 58 1012.6
20260508133924 59 265 0.9 2.6 0.00 0.00 0.00 57 1012.6
20260508133422 58 190 2.6 4.3 0.00 0.00 0.00 61 1012.6
20260508132918 58 209 2.6 2.6 0.00 0.00 0.00 58 1012.6
20260508132416 58 241 0.9 1.7 0.00 0.00 0.00 62 1012.6
20260508131913 57 253 0.0 1.7 0.00 0.00 0.00 64 1012.6
20260508131408 57 232 1.7 1.7 0.00 0.00 0.00 64 1012.6
20260508130905 57 267 0.0 1.7 0.00 0.00 0.00 63 1012.6
20260508130402 55 270 0.0 0.9 0.00 0.00 0.00 68 1012.7
20260508125858 55 262 0.9 1.7 0.00 0.00 0.00 67 1012.4
20260508125354 55 277 0.0 0.9 0.00 0.00 0.00 66 1012.7
20260508124852 54 272 0.0 0.9 0.00 0.00 0.00 70 1012.4
20260508124349 51 252 0.0 1.7 0.00 0.00 0.00 75 1012.4
20260508123847 51 217 1.7 1.7 0.00 0.00 0.00 73 1012.5
20260508123346 51 233 1.7 1.7 0.00 0.00 0.00 73 1012.6
20260508122842 50 233 0.9 2.6 0.00 0.00 0.00 74 1012.5
20260508122338 49 221 1.7 1.7 0.00 0.00 0.00 77 1012.7
20260508121836 48 249 0.9 1.7 0.00 0.00 0.00 78 1012.7
20260508121334 47 207 2.6 2.6 0.00 0.00 0.00 79 1012.4
20260508120831 46 241 1.7 1.7 0.00 0.00 0.00 80 1012.7
20260508120329 46 259 0.9 1.7 0.00 0.00 0.00 80 1012.7
20260508115826 47 232 1.7 1.7 0.00 0.00 0.00 79 1012.6
20260508115324 47 270 0.9 0.9 0.00 0.00 0.00 79 1012.6
20260508114820 47 266 0.0 1.7 0.00 0.00 0.00 80 1012.6
20260508114317 46 277 0.0 0.9 0.00 0.00 0.00 81 1012.4
20260508113814 46 265 0.9 0.9 0.00 0.00 0.00 81 1012.3
20260508113312 45 247 0.9 1.7 0.00 0.00 0.00 82 1012.0
20260508112808 45 263 0.0 0.0 0.00 0.00 0.00 83 1012.2
20260508112307 45 269 0.0 0.0 0.00 0.00 0.00 83 1012.1
20260508111801 45 269 0.0 0.0 0.00 0.00 0.00 83 1012.2
20260508111259 45 270 0.0 0.0 0.00 0.00 0.00 83 1012.1
20260508110756 44 270 0.0 0.0 0.00 0.00 0.00 84 1012.2
20260508110254 44 267 0.0 0.0 0.00 0.00 0.00 85 1011.9
20260508105753 44 268 0.0 0.0 0.00 0.00 0.00 86 1012.0
20260508105250 44 268 0.0 0.9 0.00 0.00 0.00 86 1012.2
20260508104748 44 265 0.9 0.9 0.00 0.00 0.00 86 1012.0
20260508104244 44 256 0.9 1.7 0.00 0.00 0.00 86 1012.1
20260508103742 44 255 1.7 1.7 0.00 0.00 0.00 87 1011.9
20260508103238 44 260 0.9 1.7 0.00 0.00 0.00 87 1011.8
20260508102735 44 246 1.7 1.7 0.00 0.00 0.00 87 1012.1
20260508102234 44 233 1.7 1.7 0.00 0.00 0.00 88 1012.0
20260508101730 44 244 0.0 0.0 0.00 0.00 0.00 89 1011.7
20260508101228 43 272 0.0 0.0 0.00 0.00 0.00 90 1011.9
20260508100726 43 272 0.0 0.0 0.00 0.00 0.00 91 1012.0
20260508100224 43 272 0.0 0.0 0.00 0.00 0.00 91 1011.8
20260508095719 43 272 0.0 0.0 0.00 0.00 0.00 91 1012.0
20260508095218 42 272 0.0 0.0 0.00 0.00 0.00 92 1011.8
20260508094714 42 272 0.0 0.0 0.00 0.00 0.00 92 1011.9
20260508094211 42 272 0.0 0.0 0.00 0.00 0.00 92 1011.6
20260508093707 42 272 0.0 0.0 0.00 0.00 0.00 92 1012.0
20260508093206 42 272 0.0 0.0 0.00 0.00 0.00 92 1011.8
20260508092702 41 272 0.0 0.0 0.00 0.00 0.00 92 1011.7
20260508092201 42 272 0.0 0.0 0.00 0.00 0.00 93 1011.9
20260508091658 42 272 0.0 0.0 0.00 0.00 0.00 92 1012.0
20260508091155 42 272 0.0 0.0 0.00 0.00 0.00 92 1011.9
20260508090653 42 272 0.0 0.0 0.00 0.00 0.00 92 1011.8
20260508090150 41 272 0.0 0.0 0.00 0.00 0.00 92 1011.9
20260508085645 41 272 0.0 0.0 0.00 0.00 0.00 92 1011.9
20260508085143 41 272 0.0 0.0 0.00 0.00 0.00 92 1011.6
20260508084639 42 272 0.0 0.0 0.00 0.00 0.00 92 1011.9
20260508084137 41 272 0.0 0.0 0.00 0.00 0.00 92 1011.6
20260508083634 41 272 0.0 0.0 0.00 0.00 0.00 92 1011.7
20260508083132 41 272 0.0 0.0 0.00 0.00 0.00 92 1011.7
20260508082626 42 272 0.0 0.0 0.00 0.00 0.00 91 1011.7
20260508082124 42 272 0.0 0.0 0.00 0.00 0.00 91 1011.7
20260508081621 42 272 0.0 0.0 0.00 0.00 0.00 91 1011.7
20260508081118 42 272 0.0 0.0 0.00 0.00 0.00 91 1011.6
20260508080615 42 272 0.0 0.0 0.00 0.00 0.00 91 1011.7
20260508080114 42 272 0.0 0.0 0.00 0.00 0.00 91 1011.7
20260508075609 42 272 0.0 0.0 0.00 0.00 0.00 91 1011.6
20260508075106 42 272 0.0 0.0 0.00 0.00 0.00 90 1011.8
20260508074604 42 272 0.0 0.0 0.00 0.00 0.00 90 1011.6
20260508074101 42 272 0.0 0.0 0.00 0.00 0.00 90 1011.6
20260508073558 42 272 0.0 0.0 0.00 0.00 0.00 90 1011.7
20260508073056 43 272 0.0 0.0 0.00 0.00 0.00 89 1011.7
20260508072551 43 272 0.0 0.0 0.00 0.00 0.00 89 1011.8
20260508072048 43 272 0.0 0.0 0.00 0.00 0.00 89 1011.5
20260508071547 43 272 0.0 0.0 0.00 0.00 0.00 88 1011.7
20260508071044 43 272 0.0 0.0 0.00 0.00 0.00 88 1011.7
20260508070541 44 272 0.0 0.0 0.00 0.00 0.00 88 1011.6
20260508070040 44 272 0.0 0.0 0.00 0.00 0.00 87 1011.8
20260508065537 44 272 0.0 0.0 0.00 0.00 0.00 87 1011.6
20260508065035 44 272 0.0 0.0 0.00 0.00 0.00 87 1011.7
20260508064532 44 272 0.0 0.0 0.00 0.00 0.00 86 1011.9
20260508064030 44 272 0.0 0.0 0.00 0.00 0.00 86 1012.1
20260508063527 44 272 0.0 0.0 0.00 0.00 0.00 86 1012.0
20260508063025 44 272 0.0 0.0 0.00 0.00 0.00 86 1012.0
20260508062522 44 272 0.0 0.0 0.00 0.00 0.00 85 1012.2
20260508062019 44 272 0.0 0.0 0.00 0.00 0.00 85 1012.2
20260508061517 44 272 0.0 0.0 0.00 0.00 0.00 84 1012.1
20260508061013 44 272 0.0 0.0 0.00 0.00 0.00 84 1012.3
20260508060510 44 272 0.0 0.0 0.00 0.00 0.00 84 1012.3
20260508060008 45 272 0.0 0.0 0.00 0.00 0.00 83 1012.2
20260508055504 45 272 0.0 0.0 0.00 0.00 0.00 83 1012.4
20260508055000 45 272 0.0 0.0 0.00 0.00 0.00 82 1012.2
20260508054457 45 272 0.0 0.0 0.00 0.00 0.00 81 1012.4
20260508053954 45 272 0.0 0.0 0.00 0.00 0.00 81 1012.3
20260508053450 45 272 0.0 0.0 0.00 0.00 0.00 81 1012.3
20260508052949 46 272 0.0 0.0 0.00 0.00 0.00 81 1012.3
20260508052446 46 272 0.0 0.9 0.00 0.00 0.00 81 1012.2
20260508051942 45 272 0.0 0.0 0.00 0.00 0.00 81 1012.1
20260508051438 45 272 0.0 0.0 0.00 0.00 0.00 82 1012.1
20260508050934 45 272 0.0 0.0 0.00 0.00 0.00 83 1012.0
20260508050431 45 272 0.0 0.0 0.00 0.00 0.00 83 1011.8
20260508045927 45 272 0.0 0.0 0.00 0.00 0.00 83 1012.1
20260508045425 45 272 0.0 0.0 0.00 0.00 0.00 82 1011.8
20260508044922 45 272 0.0 0.0 0.00 0.00 0.00 82 1012.0
20260508044419 46 272 0.0 0.0 0.00 0.00 0.00 81 1012.3
20260508043914 46 272 0.0 0.0 0.00 0.00 0.00 81 1012.0
20260508043412 46 272 0.0 0.0 0.00 0.00 0.00 81 1012.1
20260508042908 46 272 0.0 0.0 0.00 0.00 0.00 80 1012.1
20260508042406 46 272 0.0 0.0 0.00 0.00 0.00 80 1012.1
20260508041903 46 272 0.0 0.0 0.00 0.00 0.00 81 1012.1
20260508041359 46 272 0.0 0.0 0.00 0.00 0.00 80 1011.9
20260508040856 46 272 0.0 0.9 0.00 0.00 0.00 80 1011.8
20260508040353 46 272 0.0 0.0 0.00 0.00 0.00 79 1011.8
20260508035851 46 272 0.0 0.0 0.00 0.00 0.00 79 1011.9
20260508035348 46 272 0.0 0.0 0.00 0.00 0.00 79 1011.6
20260508034844 46 272 0.0 0.0 0.00 0.00 0.00 78 1011.7
20260508034342 47 272 0.0 0.0 0.00 0.00 0.00 78 1012.1
20260508033838 47 272 0.0 0.0 0.00 0.00 0.00 78 1012.0
20260508033337 47 272 0.0 0.0 0.00 0.00 0.00 77 1011.9
20260508032834 48 272 0.0 0.0 0.00 0.00 0.00 76 1011.8
20260508032331 48 272 0.0 0.0 0.00 0.00 0.00 75 1012.1
20260508031827 48 272 0.0 0.0 0.00 0.00 0.00 74 1012.0
20260508031324 48 272 0.0 0.0 0.00 0.00 0.00 74 1012.1
20260508030821 49 272 0.0 0.0 0.00 0.00 0.00 73 1011.7
20260508030318 49 272 0.0 0.0 0.00 0.00 0.00 72 1011.9
20260508025815 49 272 0.0 0.0 0.00 0.00 0.00 72 1012.0
20260508025312 50 272 0.0 0.0 0.00 0.00 0.00 71 1012.1
20260508024809 50 272 0.0 0.0 0.00 0.00 0.00 70 1011.9